AAY275 KSFB-KEWR

Flight info

Callsign AAY275
Flight time 2h 5m
Altitude 39000
Route WORMS GUANO BKENI VIYAP IGARY SARKY Q113 AARNN QUART PHLBO4
Aircraft A20N/M-SDE2E3FGHIRWXY/LB1

Departure

Time 2026-05-04 20:58
Airport Orlando Sanford International Airport (KSFB)

Arrival

Time 2026-05-04 23:03
Airport Newark Liberty International Airport (KEWR)
Time Latitude Longitude Altitude Speed Heading
2026-05-04 20:11 28.77618 -81.24483 64 ft 0 kts 224°
2026-05-04 20:44 28.77619 -81.24482 64 ft 2 kts 224°
2026-05-04 20:45 28.77637 -81.24463 56 ft 4 kts 206°
2026-05-04 20:45 28.77658 -81.24456 55 ft 4 kts 188°
2026-05-04 20:45 28.77684 -81.24455 58 ft 4 kts 173°
2026-05-04 20:45 28.77706 -81.24457 55 ft 4 kts 181°
2026-05-04 20:46 28.77732 -81.24454 59 ft 4 kts 199°
2026-05-04 20:46 28.77748 -81.24446 55 ft 4 kts 219°
2026-05-04 20:46 28.77763 -81.24423 62 ft 4 kts 264°
2026-05-04 20:46 28.77763 -81.24416 63 ft 0 kts 270°
2026-05-04 20:51 28.77763 -81.24419 63 ft 2 kts 270°
2026-05-04 20:51 28.77763 -81.24456 59 ft 5 kts 270°
2026-05-04 20:51 28.77763 -81.24494 57 ft 8 kts 271°
2026-05-04 20:52 28.77825 -81.24534 59 ft 12 kts
2026-05-04 20:52 28.77901 -81.24532 59 ft 10 kts
2026-05-04 20:52 28.77989 -81.24534 64 ft 15 kts 359°
2026-05-04 20:52 28.78056 -81.24550 61 ft 8 kts 314°
2026-05-04 20:53 28.78065 -81.24606 63 ft 7 kts 270°
2026-05-04 20:53 28.78065 -81.24667 63 ft 10 kts 270°
2026-05-04 20:53 28.78064 -81.24754 63 ft 10 kts 270°
2026-05-04 20:53 28.78064 -81.24831 63 ft 9 kts 270°
2026-05-04 20:54 28.78064 -81.24924 63 ft 14 kts 270°
2026-05-04 20:54 28.78064 -81.25049 63 ft 16 kts 270°
2026-05-04 20:54 28.78064 -81.25169 63 ft 14 kts 270°
2026-05-04 20:54 28.78064 -81.25275 64 ft 13 kts 269°
2026-05-04 20:55 28.78064 -81.25369 64 ft 11 kts 270°
2026-05-04 20:55 28.78064 -81.25451 64 ft 10 kts 270°
2026-05-04 20:55 28.78064 -81.25521 60 ft 8 kts 270°
2026-05-04 20:55 28.78077 -81.25575 63 ft 6 kts 314°
2026-05-04 20:56 28.78113 -81.25586 56 ft 5 kts
2026-05-04 20:56 28.78152 -81.25585 60 ft 6 kts
2026-05-04 20:56 28.78173 -81.25563 59 ft 3 kts 77°
2026-05-04 20:56 28.78173 -81.25552 64 ft 1 kts 90°
2026-05-04 20:57 28.78172 -81.25484 64 ft 33 kts 90°
2026-05-04 20:57 28.78174 -81.24942 61 ft 100 kts 90°
2026-05-04 20:57 28.78176 -81.23937 66 ft 151 kts 90°
2026-05-04 20:57 28.78178 -81.22640 399 ft 167 kts 90°
2026-05-04 20:58 28.78197 -81.21319 1104 ft 167 kts 88°
2026-05-04 20:58 28.78271 -81.20008 1879 ft 167 kts 81°
2026-05-04 20:58 28.78813 -81.18767 2217 ft 191 kts 43°
2026-05-04 20:58 28.80119 -81.18203 2528 ft 220 kts 358°
2026-05-04 20:59 28.81598 -81.18802 3135 ft 234 kts 329°
2026-05-04 20:59 28.82918 -81.19929 3893 ft 240 kts 321°
2026-05-04 20:59 28.84170 -81.21206 4689 ft 242 kts 317°
2026-05-04 20:59 28.85460 -81.22565 5149 ft 263 kts 317°
2026-05-04 21:00 28.86844 -81.24001 5852 ft 272 kts 317°
2026-05-04 21:00 28.88267 -81.25441 6717 ft 275 kts 316°
2026-05-04 21:00 28.89716 -81.26878 7543 ft 277 kts 317°
2026-05-04 21:00 28.91163 -81.28291 8417 ft 278 kts 317°
2026-05-04 21:01 28.92671 -81.29752 9204 ft 283 kts 317°
2026-05-04 21:01 28.94166 -81.31195 10030 ft 286 kts 317°
2026-05-04 21:01 28.95716 -81.32687 10497 ft 302 kts 317°
2026-05-04 21:01 28.97385 -81.34295 10705 ft 325 kts 317°
2026-05-04 21:02 28.99201 -81.35980 10870 ft 349 kts 323°
2026-05-04 21:02 29.01374 -81.37343 11352 ft 362 kts 335°
2026-05-04 21:02 29.03800 -81.38181 12019 ft 369 kts 347°
2026-05-04 21:02 29.06372 -81.38512 12711 ft 373 kts 353°
2026-05-04 21:03 29.08935 -81.38762 13399 ft 376 kts 353°
2026-05-04 21:03 29.11597 -81.38747 14073 ft 381 kts
2026-05-04 21:03 29.14219 -81.38541 14635 ft 384 kts
2026-05-04 21:03 29.16937 -81.38325 15204 ft 388 kts
2026-05-04 21:04 29.19646 -81.38108 15772 ft 392 kts
2026-05-04 21:04 29.22343 -81.37890 16325 ft 396 kts
2026-05-04 21:04 29.25111 -81.37667 16895 ft 400 kts
2026-05-04 21:04 29.27893 -81.37444 17464 ft 403 kts
2026-05-04 21:05 29.30713 -81.37220 18045 ft 407 kts
2026-05-04 21:05 29.33551 -81.36999 18577 ft 411 kts
2026-05-04 21:05 29.36416 -81.36776 19060 ft 414 kts 360°
2026-05-04 21:05 29.39304 -81.36550 19555 ft 417 kts 359°
2026-05-04 21:06 29.42207 -81.36324 20029 ft 420 kts 359°
2026-05-04 21:06 29.45135 -81.36098 20499 ft 423 kts 359°
2026-05-04 21:06 29.48080 -81.35868 20954 ft 426 kts 359°
2026-05-04 21:06 29.51048 -81.35635 21402 ft 429 kts 359°
2026-05-04 21:07 29.54037 -81.35398 21855 ft 431 kts 359°
2026-05-04 21:07 29.57047 -81.35158 22309 ft 434 kts 359°
2026-05-04 21:07 29.60031 -81.34918 22732 ft 436 kts 358°
2026-05-04 21:07 29.63072 -81.34678 23127 ft 438 kts 357°
2026-05-04 21:08 29.66104 -81.34728 23517 ft 436 kts 351°
2026-05-04 21:08 29.69145 -81.34899 23868 ft 439 kts 351°
2026-05-04 21:08 29.72202 -81.35072 24195 ft 441 kts 351°
2026-05-04 21:08 29.75273 -81.35248 24526 ft 442 kts 351°
2026-05-04 21:09 29.78357 -81.35422 24849 ft 444 kts 351°
2026-05-04 21:09 29.81449 -81.35593 25171 ft 446 kts 351°
2026-05-04 21:09 29.84559 -81.35759 25503 ft 448 kts 351°
2026-05-04 21:09 29.87679 -81.35925 25820 ft 449 kts 351°
2026-05-04 21:10 29.90801 -81.36090 26126 ft 451 kts 351°
2026-05-04 21:10 29.93941 -81.36259 26417 ft 452 kts 351°
2026-05-04 21:10 29.97090 -81.36430 26700 ft 454 kts 351°
2026-05-04 21:10 30.00252 -81.36603 26972 ft 455 kts 351°
2026-05-04 21:11 30.03423 -81.36777 27238 ft 457 kts 350°
2026-05-04 21:11 30.06603 -81.36952 27499 ft 458 kts 350°
2026-05-04 21:11 30.09758 -81.37128 27740 ft 460 kts 350°
2026-05-04 21:11 30.12957 -81.37307 28030 ft 461 kts 350°
2026-05-04 21:12 30.16205 -81.37488 28291 ft 462 kts 350°
2026-05-04 21:12 30.19415 -81.37665 28613 ft 461 kts 350°
2026-05-04 21:12 30.22573 -81.37838 28941 ft 460 kts 350°
2026-05-04 21:12 30.25768 -81.38012 29268 ft 459 kts 349°
2026-05-04 21:13 30.28953 -81.38186 29601 ft 457 kts 349°
2026-05-04 21:13 30.32131 -81.38360 29952 ft 456 kts 349°
2026-05-04 21:13 30.35306 -81.38534 30266 ft 455 kts 349°
2026-05-04 21:13 30.38465 -81.38707 30548 ft 455 kts 349°
2026-05-04 21:14 30.41628 -81.38881 30820 ft 454 kts 349°
2026-05-04 21:14 30.44784 -81.39059 31082 ft 454 kts 349°
2026-05-04 21:14 30.47938 -81.39237 31346 ft 453 kts 349°
2026-05-04 21:14 30.51087 -81.39412 31627 ft 453 kts 349°
2026-05-04 21:15 30.54198 -81.39583 31895 ft 453 kts 349°
2026-05-04 21:15 30.57353 -81.39758 32165 ft 452 kts 349°
2026-05-04 21:15 30.60490 -81.39933 32426 ft 452 kts 349°
2026-05-04 21:15 30.63634 -81.40110 32696 ft 451 kts 349°
2026-05-04 21:16 30.66769 -81.40283 32971 ft 451 kts 349°
2026-05-04 21:16 30.69904 -81.40453 33284 ft 450 kts 348°
2026-05-04 21:16 30.73038 -81.40624 33546 ft 450 kts 348°
2026-05-04 21:16 30.76164 -81.40797 33824 ft 449 kts 348°
2026-05-04 21:17 30.79291 -81.40973 34086 ft 449 kts 348°
2026-05-04 21:17 30.82410 -81.41149 34318 ft 449 kts 348°
2026-05-04 21:17 30.85485 -81.41324 34545 ft 448 kts 348°
2026-05-04 21:17 30.88597 -81.41500 34778 ft 448 kts 348°
2026-05-04 21:18 30.91705 -81.41677 34994 ft 447 kts 348°
2026-05-04 21:18 30.94811 -81.41852 35206 ft 447 kts 348°
2026-05-04 21:18 30.97916 -81.42025 35453 ft 446 kts 348°
2026-05-04 21:18 31.01024 -81.42202 35663 ft 446 kts 348°
2026-05-04 21:19 31.04119 -81.42380 35858 ft 445 kts 348°
2026-05-04 21:19 31.07214 -81.42556 36054 ft 445 kts 348°
2026-05-04 21:19 31.10305 -81.42728 36238 ft 445 kts 348°
2026-05-04 21:19 31.13402 -81.42900 36418 ft 444 kts 348°
2026-05-04 21:20 31.16487 -81.43070 36594 ft 444 kts 348°
2026-05-04 21:20 31.19580 -81.43238 36763 ft 444 kts 348°
2026-05-04 21:20 31.22708 -81.43083 36935 ft 457 kts 359°
2026-05-04 21:20 31.25847 -81.42237 37166 ft 470 kts 10°
2026-05-04 21:21 31.28838 -81.40685 37310 ft 484 kts 22°
2026-05-04 21:21 31.31723 -81.38495 37451 ft 489 kts 26°
2026-05-04 21:21 31.34517 -81.36286 37582 ft 490 kts 26°
2026-05-04 21:21 31.37339 -81.34053 37717 ft 490 kts 26°
2026-05-04 21:22 31.40164 -81.31819 37855 ft 490 kts 26°
2026-05-04 21:22 31.42987 -81.29589 37998 ft 489 kts 26°
2026-05-04 21:22 31.45819 -81.27358 38120 ft 489 kts 26°
2026-05-04 21:22 31.48646 -81.25133 38257 ft 489 kts 26°
2026-05-04 21:23 31.51476 -81.22903 38450 ft 489 kts 26°
2026-05-04 21:23 31.54261 -81.20705 38584 ft 489 kts 26°
2026-05-04 21:23 31.57114 -81.18446 38720 ft 488 kts 26°
2026-05-04 21:23 31.59894 -81.16240 38838 ft 488 kts 26°
2026-05-04 21:24 31.62701 -81.14014 38968 ft 487 kts 26°
2026-05-04 21:24 31.65513 -81.11783 39066 ft 487 kts 26°
2026-05-04 21:24 31.71151 -81.07320 39086 ft 491 kts 26°
2026-05-04 21:25 31.76799 -81.02840 39120 ft 494 kts 26°
2026-05-04 21:25 31.82483 -80.98309 39083 ft 493 kts 26°
2026-05-04 21:26 31.88165 -80.93775 39080 ft 493 kts 26°
2026-05-04 21:26 31.93848 -80.89244 39077 ft 494 kts 26°
2026-05-04 21:27 31.99556 -80.84689 39083 ft 496 kts 26°
2026-05-04 21:27 32.05266 -80.80111 39131 ft 497 kts 27°
2026-05-04 21:28 32.10981 -80.75521 39131 ft 496 kts 26°
2026-05-04 21:28 32.16685 -80.70936 39127 ft 496 kts 26°
2026-05-04 21:29 32.22390 -80.66339 39130 ft 496 kts 27°
2026-05-04 21:29 32.28091 -80.61729 39163 ft 495 kts 27°
2026-05-04 21:30 32.33750 -80.57163 39114 ft 491 kts 27°
2026-05-04 21:30 32.39408 -80.52612 39112 ft 492 kts 27°
2026-05-04 21:31 32.47858 -80.45774 39110 ft 494 kts 27°
2026-05-04 21:32 32.53535 -80.41159 39150 ft 494 kts 27°
2026-05-04 21:32 32.59288 -80.36774 39143 ft 485 kts 19°
2026-05-04 21:33 32.65305 -80.33166 39142 ft 484 kts 19°
2026-05-04 21:33 32.70301 -80.30164 39139 ft 484 kts 19°
2026-05-04 21:34 32.76312 -80.26533 39137 ft 484 kts 19°
2026-05-04 21:34 32.82288 -80.22917 39105 ft 480 kts 19°
2026-05-04 21:35 32.88240 -80.19324 39104 ft 479 kts 19°
2026-05-04 21:35 32.94180 -80.15730 39097 ft 480 kts 19°
2026-05-04 21:36 33.00136 -80.12112 39099 ft 480 kts 19°
2026-05-04 21:36 33.06091 -80.08490 39101 ft 481 kts 19°
2026-05-04 21:37 33.12055 -80.04859 39108 ft 481 kts 19°
2026-05-04 21:37 33.17997 -80.01241 39106 ft 482 kts 19°
2026-05-04 21:38 33.23964 -79.97601 39107 ft 482 kts 19°
2026-05-04 21:38 33.29943 -79.93940 39138 ft 482 kts 20°
2026-05-04 21:39 33.35907 -79.90281 39124 ft 481 kts 20°
2026-05-04 21:39 33.41863 -79.86635 39120 ft 480 kts 20°
2026-05-04 21:40 33.47773 -79.83013 39114 ft 480 kts 20°
2026-05-04 21:40 33.53723 -79.79358 39134 ft 480 kts 20°
2026-05-04 21:41 33.59639 -79.75700 39091 ft 477 kts 20°
2026-05-04 21:41 33.65545 -79.72049 39090 ft 477 kts 20°
2026-05-04 21:42 33.71455 -79.68400 39108 ft 477 kts 20°
2026-05-04 21:42 33.77328 -79.64765 39108 ft 478 kts 20°
2026-05-04 21:43 33.83238 -79.61100 39120 ft 477 kts 20°
2026-05-04 21:43 33.89142 -79.57436 39110 ft 477 kts 20°
2026-05-04 21:44 33.95039 -79.53763 39106 ft 477 kts 20°
2026-05-04 21:44 34.00931 -79.50090 39097 ft 476 kts 20°
2026-05-04 21:45 34.06818 -79.46409 39104 ft 476 kts 21°
2026-05-04 21:45 34.12700 -79.42732 39092 ft 476 kts 21°
2026-05-04 21:46 34.18550 -79.39087 39084 ft 476 kts 21°
2026-05-04 21:46 34.24436 -79.35402 39082 ft 477 kts 21°
2026-05-04 21:47 34.30320 -79.31700 39093 ft 476 kts 21°
2026-05-04 21:47 34.36189 -79.28000 39083 ft 475 kts 21°
2026-05-04 21:48 34.42060 -79.24303 39086 ft 475 kts 21°
2026-05-04 21:48 34.47937 -79.20645 39069 ft 475 kts 20°
2026-05-04 21:49 34.53852 -79.17072 39088 ft 474 kts 20°
2026-05-04 21:49 34.59732 -79.13516 39069 ft 475 kts 20°
2026-05-04 21:50 34.65626 -79.09897 39068 ft 474 kts 20°
2026-05-04 21:50 34.71514 -79.06271 39067 ft 474 kts 20°
2026-05-04 21:51 34.77400 -79.02657 39085 ft 474 kts 20°
2026-05-04 21:51 34.83303 -78.99031 39069 ft 474 kts 20°
2026-05-04 21:52 34.89193 -78.95395 39059 ft 474 kts 20°
2026-05-04 21:52 34.95080 -78.91750 39057 ft 474 kts 20°
2026-05-04 21:53 35.00968 -78.88114 39077 ft 474 kts 20°
2026-05-04 21:53 35.06819 -78.84500 39067 ft 474 kts 20°
2026-05-04 21:54 35.12712 -78.80841 39043 ft 474 kts 20°
2026-05-04 21:54 35.18590 -78.77188 39044 ft 474 kts 20°
2026-05-04 21:55 35.24465 -78.73530 39064 ft 474 kts 20°
2026-05-04 21:55 35.30328 -78.69877 39048 ft 472 kts 20°
2026-05-04 21:56 35.36165 -78.66239 39032 ft 473 kts 20°
2026-05-04 21:56 35.42030 -78.62560 39036 ft 474 kts 21°
2026-05-04 21:57 35.47903 -78.58868 39035 ft 474 kts 21°
2026-05-04 21:57 35.53792 -78.55171 39026 ft 475 kts 20°
2026-05-04 21:58 35.59678 -78.51482 39032 ft 475 kts 21°
2026-05-04 21:58 35.65554 -78.47775 39035 ft 475 kts 21°
2026-05-04 21:59 35.71437 -78.44065 39064 ft 475 kts 20°
2026-05-04 21:59 35.77321 -78.40357 39054 ft 475 kts 20°
2026-05-04 22:00 35.83168 -78.36664 39053 ft 475 kts 20°
2026-05-04 22:00 35.89061 -78.32931 39051 ft 475 kts 20°
2026-05-04 22:01 35.94943 -78.29194 39077 ft 475 kts 20°
2026-05-04 22:01 36.00818 -78.25465 39059 ft 475 kts 20°
2026-05-04 22:02 36.06661 -78.21753 39048 ft 474 kts 20°
2026-05-04 22:02 36.12532 -78.18015 39050 ft 474 kts 20°
2026-05-04 22:03 36.18400 -78.14268 39065 ft 473 kts 21°
2026-05-04 22:03 36.24256 -78.10527 39053 ft 473 kts 21°
2026-05-04 22:04 36.30094 -78.06787 39042 ft 472 kts 21°
2026-05-04 22:04 36.35902 -78.03072 39037 ft 471 kts 18°
2026-05-04 22:05 36.42024 -78.00706 39051 ft 457 kts
2026-05-04 22:05 36.48249 -77.99090 39034 ft 456 kts
2026-05-04 22:06 36.54463 -77.97459 39030 ft 456 kts
2026-05-04 22:06 36.60676 -77.95823 39073 ft 456 kts
2026-05-04 22:07 36.66894 -77.94183 39080 ft 457 kts
2026-05-04 22:07 36.73118 -77.92550 39069 ft 457 kts
2026-05-04 22:08 36.79341 -77.90918 39058 ft 457 kts
2026-05-04 22:08 36.85580 -77.89274 39051 ft 458 kts
2026-05-04 22:09 36.91779 -77.87632 39005 ft 458 kts
2026-05-04 22:09 36.98013 -77.85991 39001 ft 458 kts
2026-05-04 22:10 37.04254 -77.84339 39001 ft 458 kts
2026-05-04 22:10 37.10503 -77.82672 39025 ft 458 kts
2026-05-04 22:11 37.16747 -77.81003 39024 ft 458 kts
2026-05-04 22:11 37.22983 -77.79344 39018 ft 458 kts
2026-05-04 22:12 37.29221 -77.77685 39010 ft 458 kts
2026-05-04 22:12 37.35458 -77.76030 39019 ft 458 kts
2026-05-04 22:13 37.41646 -77.74377 39014 ft 457 kts
2026-05-04 22:13 37.47861 -77.72699 39011 ft 457 kts
2026-05-04 22:14 37.53924 -77.70131 39005 ft 467 kts 24°
2026-05-04 22:14 37.59460 -77.65769 39018 ft 469 kts 29°
2026-05-04 22:15 37.64945 -77.61329 39006 ft 467 kts 28°
2026-05-04 22:15 37.70412 -77.56904 38996 ft 467 kts 28°
2026-05-04 22:16 37.75878 -77.52471 38993 ft 467 kts 28°
2026-05-04 22:16 37.81339 -77.48026 38989 ft 467 kts 28°
2026-05-04 22:17 37.86812 -77.43568 38989 ft 467 kts 28°
2026-05-04 22:17 37.92285 -77.39113 38989 ft 467 kts 28°
2026-05-04 22:18 37.97763 -77.34640 39010 ft 467 kts 28°
2026-05-04 22:18 38.03169 -77.30206 38953 ft 464 kts 28°
2026-05-04 22:19 38.08595 -77.25777 38949 ft 464 kts 28°
2026-05-04 22:19 38.14031 -77.21320 38935 ft 465 kts 28°
2026-05-04 22:20 38.18551 -77.17603 38927 ft 466 kts 28°
2026-05-04 22:20 38.23991 -77.13132 38957 ft 465 kts 28°
2026-05-04 22:21 38.29428 -77.08643 38959 ft 465 kts 30°
2026-05-04 22:21 38.34694 -77.03825 38953 ft 467 kts 33°
2026-05-04 22:22 38.39814 -76.98727 38966 ft 466 kts 34°
2026-05-04 22:22 38.44853 -76.93714 38963 ft 454 kts 33°
2026-05-04 22:22 38.47341 -76.91299 38755 ft 453 kts 33°
2026-05-04 22:23 38.49859 -76.88884 38508 ft 451 kts 32°
2026-05-04 22:23 38.52367 -76.86487 38161 ft 450 kts 32°
2026-05-04 22:23 38.54873 -76.84087 37776 ft 450 kts 32°
2026-05-04 22:23 38.57377 -76.81679 37371 ft 450 kts 32°
2026-05-04 22:24 38.59871 -76.79265 36976 ft 450 kts 33°
2026-05-04 22:24 38.62364 -76.76844 36603 ft 449 kts 33°
2026-05-04 22:24 38.64848 -76.74423 36211 ft 448 kts 33°
2026-05-04 22:24 38.67329 -76.72004 35821 ft 448 kts 33°
2026-05-04 22:25 38.69810 -76.69586 35442 ft 447 kts 33°
2026-05-04 22:25 38.72274 -76.67180 35073 ft 446 kts 33°
2026-05-04 22:25 38.74715 -76.64798 34714 ft 446 kts 33°
2026-05-04 22:25 38.77211 -76.62362 34355 ft 445 kts 33°
2026-05-04 22:26 38.79646 -76.59988 34002 ft 445 kts 33°
2026-05-04 22:26 38.82107 -76.57581 33610 ft 444 kts 33°
2026-05-04 22:26 38.84563 -76.55182 33200 ft 444 kts 33°
2026-05-04 22:26 38.87022 -76.52776 32795 ft 445 kts 33°
2026-05-04 22:27 38.89483 -76.50360 32407 ft 446 kts 33°
2026-05-04 22:27 38.91944 -76.47940 32010 ft 446 kts 33°
2026-05-04 22:27 38.94415 -76.45510 31622 ft 447 kts 33°
2026-05-04 22:27 38.96892 -76.43076 31222 ft 448 kts 33°
2026-05-04 22:28 38.99371 -76.40642 30842 ft 449 kts 33°
2026-05-04 22:28 39.01852 -76.38207 30486 ft 449 kts 34°
2026-05-04 22:28 39.04297 -76.35715 30119 ft 450 kts 36°
2026-05-04 22:28 39.06671 -76.33081 29715 ft 451 kts 38°
2026-05-04 22:29 39.08993 -76.30351 29287 ft 453 kts 39°
2026-05-04 22:29 39.11260 -76.27604 28872 ft 454 kts 40°
2026-05-04 22:29 39.13563 -76.24799 28449 ft 455 kts 40°
2026-05-04 22:29 39.15881 -76.22009 28041 ft 456 kts 39°
2026-05-04 22:30 39.18217 -76.19237 27635 ft 457 kts 39°
2026-05-04 22:30 39.20574 -76.16475 27247 ft 458 kts 38°
2026-05-04 22:30 39.22944 -76.13722 26956 ft 459 kts 38°
2026-05-04 22:30 39.25320 -76.10967 26924 ft 459 kts 38°
2026-05-04 22:31 39.27695 -76.08210 26829 ft 461 kts 38°
2026-05-04 22:31 39.30076 -76.05426 26311 ft 461 kts 38°
2026-05-04 22:31 39.32450 -76.02634 25931 ft 462 kts 38°
2026-05-04 22:31 39.34834 -75.99828 25528 ft 463 kts 38°
2026-05-04 22:32 39.37218 -75.97012 25127 ft 465 kts 38°
2026-05-04 22:32 39.39607 -75.94188 24715 ft 466 kts 38°
2026-05-04 22:32 39.41968 -75.91399 24318 ft 464 kts 38°
2026-05-04 22:32 39.44348 -75.88585 23924 ft 463 kts 38°
2026-05-04 22:33 39.46717 -75.85782 23522 ft 461 kts 38°
2026-05-04 22:33 39.49074 -75.82988 23083 ft 458 kts 38°
2026-05-04 22:33 39.51424 -75.80199 22691 ft 457 kts 38°
2026-05-04 22:33 39.53764 -75.77428 22294 ft 455 kts 38°
2026-05-04 22:34 39.56103 -75.74660 21897 ft 453 kts 38°
2026-05-04 22:34 39.58419 -75.71913 21507 ft 451 kts 38°
2026-05-04 22:34 39.60727 -75.69166 21112 ft 450 kts 38°
2026-05-04 22:34 39.63024 -75.66420 20726 ft 448 kts 38°
2026-05-04 22:35 39.65309 -75.63685 20346 ft 446 kts 38°
2026-05-04 22:35 39.67568 -75.60982 19959 ft 445 kts 38°
2026-05-04 22:35 39.69843 -75.58262 19515 ft 443 kts 38°
2026-05-04 22:35 39.72103 -75.55559 19065 ft 441 kts 39°
2026-05-04 22:36 39.74353 -75.52863 18615 ft 439 kts 39°
2026-05-04 22:36 39.76595 -75.50167 18166 ft 438 kts 39°
2026-05-04 22:36 39.78817 -75.47484 17692 ft 436 kts 39°
2026-05-04 22:36 39.81031 -75.44807 17255 ft 433 kts 39°
2026-05-04 22:37 39.83231 -75.42140 16864 ft 430 kts 39°
2026-05-04 22:37 39.85418 -75.39488 16494 ft 428 kts 39°
2026-05-04 22:37 39.87590 -75.36856 16058 ft 426 kts 39°
2026-05-04 22:37 39.89741 -75.34250 15725 ft 417 kts 39°
2026-05-04 22:38 39.91804 -75.31739 15589 ft 391 kts 39°
2026-05-04 22:38 39.93718 -75.29396 15461 ft 364 kts 38°
2026-05-04 22:38 39.95504 -75.27209 15234 ft 344 kts 38°
2026-05-04 22:38 39.97228 -75.25112 14701 ft 335 kts 38°
2026-05-04 22:39 39.98927 -75.23053 14102 ft 331 kts 38°
2026-05-04 22:39 40.00611 -75.21016 13476 ft 328 kts 38°
2026-05-04 22:39 40.02247 -75.19036 13099 ft 324 kts 39°
2026-05-04 22:39 40.03890 -75.17043 12775 ft 321 kts 39°
2026-05-04 22:40 40.05514 -75.15065 12449 ft 319 kts 39°
2026-05-04 22:40 40.07132 -75.13092 12128 ft 317 kts 39°
2026-05-04 22:40 40.08741 -75.11126 11806 ft 315 kts 39°
2026-05-04 22:40 40.10333 -75.09179 11490 ft 313 kts 39°
2026-05-04 22:41 40.11914 -75.07241 11173 ft 311 kts 39°
2026-05-04 22:41 40.13484 -75.05314 10875 ft 308 kts 39°
2026-05-04 22:41 40.15035 -75.03412 10588 ft 304 kts 39°
2026-05-04 22:41 40.16578 -75.01517 10307 ft 303 kts 39°
2026-05-04 22:42 40.18107 -74.99638 10015 ft 301 kts 39°
2026-05-04 22:42 40.19632 -74.97767 9730 ft 299 kts 39°
2026-05-04 22:42 40.21128 -74.95931 9442 ft 298 kts 39°
2026-05-04 22:42 40.22637 -74.94075 9161 ft 297 kts 39°
2026-05-04 22:43 40.24136 -74.92230 8879 ft 296 kts 39°
2026-05-04 22:43 40.25633 -74.90378 8618 ft 296 kts 41°
2026-05-04 22:43 40.27077 -74.88456 8344 ft 296 kts 43°
2026-05-04 22:43 40.28480 -74.86492 8067 ft 295 kts 44°
2026-05-04 22:44 40.29871 -74.84509 7911 ft 294 kts 44°
2026-05-04 22:44 40.31257 -74.82529 7836 ft 295 kts 44°
2026-05-04 22:44 40.32642 -74.80555 7747 ft 294 kts 44°
2026-05-04 22:44 40.34035 -74.78578 7662 ft 294 kts 44°
2026-05-04 22:45 40.35424 -74.76608 7553 ft 294 kts 44°
2026-05-04 22:45 40.38209 -74.72680 7361 ft 294 kts 44°
2026-05-04 22:45 40.39586 -74.70745 7261 ft 293 kts 44°
2026-05-04 22:46 40.40993 -74.68803 7163 ft 292 kts 39°
2026-05-04 22:46 40.42627 -74.67272 7068 ft 287 kts 24°
2026-05-04 22:46 40.44476 -74.66357 6956 ft 282 kts
2026-05-04 22:46 40.46398 -74.65852 6863 ft 282 kts
2026-05-04 22:47 40.48321 -74.65347 6765 ft 281 kts
2026-05-04 22:47 40.50236 -74.64837 6679 ft 281 kts
2026-05-04 22:47 40.52152 -74.64322 6584 ft 281 kts
2026-05-04 22:47 40.54066 -74.63804 6495 ft 282 kts
2026-05-04 22:48 40.55998 -74.63284 6402 ft 283 kts
2026-05-04 22:48 40.57932 -74.62766 6306 ft 283 kts
2026-05-04 22:48 40.59864 -74.62246 6209 ft 283 kts
2026-05-04 22:48 40.61799 -74.61724 6089 ft 283 kts
2026-05-04 22:49 40.63726 -74.61206 5975 ft 283 kts
2026-05-04 22:49 40.65637 -74.60695 5985 ft 283 kts
2026-05-04 22:49 40.67574 -74.60179 5989 ft 283 kts
2026-05-04 22:49 40.69515 -74.59662 5774 ft 284 kts
2026-05-04 22:50 40.71448 -74.59143 5653 ft 284 kts
2026-05-04 22:50 40.73379 -74.58624 5560 ft 283 kts
2026-05-04 22:50 40.75321 -74.58097 5466 ft 286 kts
2026-05-04 22:50 40.77262 -74.57588 5258 ft 283 kts
2026-05-04 22:51 40.79207 -74.57077 5195 ft 285 kts
2026-05-04 22:51 40.81146 -74.56544 5068 ft 285 kts 10°
2026-05-04 22:51 40.82942 -74.55445 4998 ft 287 kts 38°
2026-05-04 22:51 40.84246 -74.53450 5009 ft 290 kts 56°
2026-05-04 22:52 40.85351 -74.51214 5006 ft 290 kts 58°
2026-05-04 22:52 40.86433 -74.48962 5008 ft 290 kts 58°
2026-05-04 22:52 40.87511 -74.46714 5008 ft 289 kts 58°
2026-05-04 22:52 40.88592 -74.44470 5005 ft 287 kts 57°
2026-05-04 22:53 40.89627 -74.42311 5003 ft 269 kts 57°
2026-05-04 22:53 40.90594 -74.40293 4994 ft 252 kts 58°
2026-05-04 22:53 40.91520 -74.38364 4995 ft 247 kts 57°
2026-05-04 22:53 40.92443 -74.36438 5003 ft 248 kts 58°
2026-05-04 22:54 40.93359 -74.34536 4998 ft 248 kts 57°
2026-05-04 22:54 40.94286 -74.32620 4999 ft 248 kts 57°
2026-05-04 22:54 40.95179 -74.30676 4993 ft 246 kts 66°
2026-05-04 22:54 40.95488 -74.28494 4999 ft 242 kts 98°
2026-05-04 22:55 40.95202 -74.26310 4996 ft 241 kts 106°
2026-05-04 22:55 40.94810 -74.24158 4783 ft 240 kts 107°
2026-05-04 22:55 40.94417 -74.22033 4527 ft 236 kts 108°
2026-05-04 22:55 40.94030 -74.19927 4279 ft 234 kts 107°
2026-05-04 22:56 40.93650 -74.17859 4057 ft 229 kts 107°
2026-05-04 22:56 40.93274 -74.15824 3986 ft 226 kts 108°
2026-05-04 22:56 40.92861 -74.13818 3990 ft 226 kts 119°
2026-05-04 22:56 40.91942 -74.12204 3876 ft 219 kts 143°
2026-05-04 22:57 40.90793 -74.10918 3602 ft 216 kts 146°
2026-05-04 22:57 40.89626 -74.09715 3388 ft 208 kts 147°
2026-05-04 22:57 40.88513 -74.08573 3108 ft 202 kts 147°
2026-05-04 22:57 40.87404 -74.07462 2973 ft 197 kts 154°
2026-05-04 22:58 40.86159 -74.06804 2989 ft 191 kts 173°
2026-05-04 22:58 40.84869 -74.06757 2994 ft 182 kts 192°
2026-05-04 22:58 40.83685 -74.07267 2914 ft 179 kts 208°
2026-05-04 22:58 40.82561 -74.07986 2732 ft 178 kts 208°
2026-05-04 22:59 40.81459 -74.08691 2507 ft 172 kts 207°
2026-05-04 22:59 40.80427 -74.09350 2296 ft 157 kts 207°
2026-05-04 22:59 40.79503 -74.09938 2106 ft 140 kts 208°
2026-05-04 22:59 40.78662 -74.10475 1924 ft 129 kts 210°
2026-05-04 23:00 40.77861 -74.10988 1739 ft 127 kts 208°
2026-05-04 23:00 40.77062 -74.11498 1591 ft 128 kts 209°
2026-05-04 23:00 40.76270 -74.12003 1405 ft 124 kts 208°
2026-05-04 23:00 40.75502 -74.12493 1240 ft 123 kts 207°
2026-05-04 23:01 40.74735 -74.12981 1073 ft 126 kts 208°
2026-05-04 23:01 40.73937 -74.13491 922 ft 131 kts 209°
2026-05-04 23:01 40.73116 -74.14013 768 ft 128 kts 210°
2026-05-04 23:01 40.72332 -74.14512 592 ft 128 kts 209°
2026-05-04 23:02 40.71514 -74.15035 426 ft 132 kts 210°
2026-05-04 23:02 40.70685 -74.15561 267 ft 129 kts 209°
2026-05-04 23:02 40.69896 -74.16063 88 ft 125 kts 207°
2026-05-04 23:02 40.69163 -74.16532 24 ft 98 kts 206°
2026-05-04 23:03 40.68728 -74.16808 21 ft 33 kts 206°
2026-05-04 23:03 40.68546 -74.16955 22 ft 25 kts 234°
2026-05-04 23:03 40.68475 -74.17098 23 ft 13 kts 241°
2026-05-04 23:03 40.68447 -74.17163 25 ft 6 kts 238°
2026-05-04 23:04 40.68439 -74.17179 24 ft 1 kts 236°
2026-05-04 23:04 40.68436 -74.17184 23 ft 1 kts 237°
2026-05-04 23:04 40.68434 -74.17199 23 ft 2 kts 263°
2026-05-04 23:04 40.68441 -74.17235 23 ft 6 kts 290°
2026-05-04 23:05 40.68457 -74.17280 24 ft 5 kts 297°
2026-05-04 23:05 40.68484 -74.17351 24 ft 11 kts 297°
2026-05-04 23:05 40.68526 -74.17450 23 ft 12 kts 312°
2026-05-04 23:05 40.68582 -74.17513 23 ft 10 kts 295°
2026-05-04 23:06 40.68548 -74.17586 22 ft 11 kts 207°
2026-05-04 23:06 40.68470 -74.17632 22 ft 13 kts 204°
2026-05-04 23:06 40.68383 -74.17686 22 ft 15 kts 206°
2026-05-04 23:06 40.68286 -74.17748 22 ft 16 kts 206°
2026-05-04 23:07 40.68191 -74.17818 23 ft 14 kts 232°
2026-05-04 23:07 40.68214 -74.17945 23 ft 16 kts 296°
2026-05-04 23:07 40.68235 -74.18046 22 ft 12 kts 274°
2026-05-04 23:07 40.68238 -74.18133 22 ft 7 kts 270°
2026-05-04 23:08 40.68234 -74.18193 22 ft 8 kts 263°
2026-05-04 23:08 40.68241 -74.18233 22 ft 2 kts 315°
2026-05-04 23:08 40.68256 -74.18239 23 ft 4 kts 346°
2026-05-04 23:08 40.68280 -74.18245 24 ft 3 kts 349°
2026-05-04 23:09 40.68297 -74.18249 22 ft 0 kts 349°